Other Surface Observations
Issued by NWS Tucson, AZ

Home | Current Version | Previous Version | Text Only | Print | Product List | Glossary On
Versions: 1 2 3 4 5 6 7 8 9 10 11 12 13 14 15 16 17 18 19 20 21 22 23 24 25 26 27 28 29 30 31 32 33 34 35 36 37 38 39 40 41 42 43 44 45 46 47 48 49 50
517
SXUS55 KTWC 052115
OSOTWC

WEATHER ROUNDUP FOR SOUTHEAST ARIZONA
NATIONAL WEATHER SERVICE TUCSON AZ
215 PM MST MON DEC 05 2016

AZZ504>506-514-052215-
LOCATION       SKY/WX    TMP DP  RH WIND       PRES   REMARKS
TUCSON         SUNNY     71  24  17 VRB5      29.92F
DAVIS-MONTHAN  MOSUNNY   69  24  18 CALM      29.90F
CHILDRENS PARK N/A      N/A N/A  19 E2                PIMA CO DEQ
ALVERNON/22ND  N/A       69 N/A N/A NE2               PIMA CO DEQ
CHERRY/GLENN   N/A       70 N/A N/A N0                PIMA CO DEQ
TANGERINE      N/A       68 N/A N/A SW5               PIMA CO DEQ
CONTL RANCH    N/A       68  23  18 S4                PIMA CO DEQ
GRANT/1ST      N/A       69  25  19 SE3               PIMA CO DEQ
CRAYCROFT/22ND N/A       69  24  18 N/A               PIMA CO DEQ
GOLFLINKS/KOLB N/A       67  25  20 W1                PIMA CO DEQ
AJO/12TH       N/A       69  25  19 S5                PIMA CO DEQ
FAIRGROUNDS    N/A       68 N/A N/A W8                PIMA CO DEQ
SAGUARO        N/A       70  22  16 W5G12             *SABINO CYN
SAN CARLOS     N/A       63  29  27 CALM              *SAN CARLOS
GREEN VALLEY   N/A       69  25  19 SW15              PIMA CO DEQ
HORSE CAMP CYN N/A       61  21  21 W11G17            *ARAVAIPA CYN
RINCON MTNS    N/A       46  19  33 W5G15             *NR MANNING CAMP
$$

AZZ509>511-052215-
LOCATION       SKY/WX    TMP DP  RH WIND       PRES   REMARKS
SAFFORD        SUNNY     60  26  27 VRB3      29.89F
STRAY HORSE    N/A       46  13  26 N/A               *
TRAIL CABIN    N/A       53  13  20 W9G19             *N OF GRANVILLE
BLACK HILLS    NOT AVBL
DRY LAKE       N/A       46  14  27 W8G17             *NATANES MTNS
NOON CREEK     N/A       56  26  31 NE5G10            *PINALENO MTNS
COLUMBINE      N/A       42  10  27 W8G17             *PINALENO MTNS
GUTHRIE        N/A       50  16  26 W14G30            *SW OF GUTHRIE
$$

AZZ502-503-513-052215-
LOCATION       SKY/WX    TMP DP  RH WIND       PRES   REMARKS
NOGALES        SUNNY     66  27  23 SW14      29.96F
SELLS          N/A       71  21  15 NE9G15            *
SASABE         N/A       69  25  19 SW11G18           *ALTAR VLY
HOPKINS        N/A       58  25  28 W7G17             *SANTA RITA MTNS
CARR CYN       N/A       58  28  31 S3                *W OF HEREFORD
$$

AZZ507-508-512-052215-
LOCATION       SKY/WX    TMP DP  RH WIND       PRES   REMARKS
SIERRA VISTA   SUNNY     64  24  21 W16G22    29.96S
DOUGLAS        SUNNY     64  28  25 CALM      29.94F
EMPIRE MTNS    NOT AVBL
MULESHOE RANCH N/A       62  20  20 W7G15             *PRESERVE
HEADQUARTERS   N/A       58  22  25 SW8G17            *CHIRICAHUA MTNS
$$

.............................NOTES.............................
THIS IS AN AUTOMATED COLLECTIVE WITH MINIMAL QUALITY CONTROL.
PIMA CO DEQ SITES HAVE NONSTANDARD WIND SENSOR HEIGHTS.
PIMA CO DEQ SITES DO NOT REPORT WIND GUSTS.
* INDICATES WIND SENSORS LOCATED AT 20 FEET INSTEAD OF 33 FEET.
..............................KEY..............................
SKY/WX - SKY CONDITION/WEATHER
TMP    - TEMPERATURE IN FAHRENHEIT
DP     - DEWPOINT IN FAHRENHEIT
RH     - RELATIVE HUMIDITY IN PERCENT
WIND   - DIRECTION AND SPEED IN MILES PER HOUR (MPH)
VRB    - VARIABLE WIND DIRECTION
PRES   - MEAN SEA LEVEL PRESSURE IN INCHES OF MERCURY
         F - FALLING PRESSURE   R - RISING PRESSURE
         S - STEADY PRESSURE
VSB    - VISIBILITY IN MILES
HX     - HEAT INDEX IN FAHRENHEIT
WCI    - WIND CHILL INDEX IN FAHRENHEIT
N/A    - NOT AVAILABLE
AFB    - AIR FORCE BASE
         DAVIS-MONTHAN IS DAVIS-MONTHAN AIR FORCE BASE
CYN    - CANYON
MTNS   - MOUNTAINS
NCA    - NATIONAL CONSERVATION AREA
NR     - NEAR
VLY    - VALLEY
CONTL  - CONTINENTAL
PIMA CO DEQ - PIMA COUNTY DEPT OF ENVIRONMENTAL QUALITY



USA.gov is the U.S. government's official web portal to all federal, state and local government web resources and services.